{"data":{"norad_id":53499,"epoch":"2026-05-25T04:00:03.998880Z","epoch_age_seconds":63796,"freshness":"FRESH","line1":"1 53499U 22099AL  26145.16671295 -.00582673  00000+0 -19894-1 0  9991","line2":"2 53499  97.6015 267.8209 0001780  70.3113  88.4342 15.32764496  5703","mean_motion":15.32764496,"eccentricity":0.000178,"inclination_deg":97.6015,"raan_deg":267.8209,"arg_perigee_deg":70.3113,"mean_anomaly_deg":88.4342,"bstar":-0.019894,"rev_number":570,"period_min":93.947896350543,"perigee_km":466.3500890603,"apogee_km":468.78716026268,"semimajor_km":6845.7056246615,"source":"CELESTRAK","updated_at":"2026-05-25T13:38:17.436798Z"}}